JFA03C LSGG-LEIB

Flight info

Callsign JFA03C
Flight time 1h 37m
Altitude 41000
Route BALSI DCT RETNO DCT TUPOX DCT MTG DCT DIVKO DCT VATIR N852 PIVUS DCT SULID DCT DIMIB DCT POS
Aircraft PC24/M-SBDGIRWY/LB2

Departure

Time 2026-05-04 10:39
Airport Geneva International Airport (LSGG)

Arrival

Time 2026-05-04 12:16
Airport Ibiza Airport (LEIB)
Time Latitude Longitude Altitude Speed Heading
2026-05-04 10:10 46.23739 6.10002 1400 ft 0 kts 316°
2026-05-04 10:29 46.23748 6.09999 1403 ft 2 kts 25°
2026-05-04 10:30 46.23728 6.10057 1401 ft 14 kts 130°
2026-05-04 10:30 46.23688 6.10133 1404 ft 12 kts 121°
2026-05-04 10:30 46.23746 6.10249 1398 ft 21 kts 44°
2026-05-04 10:30 46.23878 6.10443 1395 ft 32 kts 45°
2026-05-04 10:31 46.24034 6.10677 1395 ft 15 kts 54°
2026-05-04 10:31 46.23988 6.10785 1398 ft 14 kts 134°
2026-05-04 10:32 46.23927 6.11400 1390 ft 17 kts 44°
2026-05-04 10:33 46.24019 6.11539 1383 ft 21 kts 46°
2026-05-04 10:33 46.24124 6.11693 1380 ft 23 kts 45°
2026-05-04 10:33 46.24237 6.11860 1380 ft 23 kts 45°
2026-05-04 10:33 46.24348 6.12021 1379 ft 23 kts 45°
2026-05-04 10:34 46.24454 6.12175 1380 ft 21 kts 46°
2026-05-04 10:34 46.24558 6.12329 1378 ft 21 kts 45°
2026-05-04 10:34 46.24664 6.12486 1372 ft 23 kts 45°
2026-05-04 10:34 46.24774 6.12643 1369 ft 18 kts 41°
2026-05-04 10:35 46.24871 6.12700 1367 ft 15 kts 17°
2026-05-04 10:35 46.24904 6.12715 1367 ft 0 kts 17°
2026-05-04 10:36 46.24915 6.12719 1367 ft 0 kts 15°
2026-05-04 10:37 46.24959 6.12724 1368 ft 20 kts 353°
2026-05-04 10:37 46.24958 6.12578 1369 ft 17 kts 215°
2026-05-04 10:37 46.24926 6.12535 1370 ft 0 kts 226°
2026-05-04 10:39 46.21447 6.07402 3738 ft 180 kts 225°
2026-05-04 10:39 46.20584 6.06082 4246 ft 179 kts 226°
2026-05-04 10:39 46.19734 6.04814 4745 ft 175 kts 223°
2026-05-04 10:40 46.18842 6.03580 5247 ft 179 kts 223°
2026-05-04 10:40 46.17967 6.02324 5924 ft 169 kts 223°
2026-05-04 10:40 46.17136 6.01110 6900 ft 173 kts 222°
2026-05-04 10:40 46.16277 5.99858 7870 ft 175 kts 222°
2026-05-04 10:41 46.15244 5.98977 8865 ft 175 kts 194°
2026-05-04 10:41 46.14022 5.98830 9905 ft 179 kts 180°
2026-05-04 10:41 46.12765 5.98837 10867 ft 182 kts 181°
2026-05-04 10:41 46.11492 5.98836 11839 ft 184 kts 182°
2026-05-04 10:42 46.10174 5.98831 12655 ft 196 kts 181°
2026-05-04 10:42 46.08788 5.98825 13333 ft 206 kts 182°
2026-05-04 10:42 46.07278 5.98817 13958 ft 229 kts 182°
2026-05-04 10:42 46.05605 5.98809 14467 ft 252 kts 182°
2026-05-04 10:43 46.03769 5.98801 14979 ft 274 kts 182°
2026-05-04 10:44 45.88180 5.98269 19475 ft 341 kts 184°
2026-05-04 10:45 45.85783 5.98119 20088 ft 347 kts 184°
2026-05-04 10:45 45.83361 5.97971 20826 ft 349 kts 184°
2026-05-04 10:45 45.80929 5.97824 21582 ft 351 kts 184°
2026-05-04 10:45 45.78487 5.97680 22357 ft 352 kts 184°
2026-05-04 10:46 45.76038 5.97576 23155 ft 352 kts 183°
2026-05-04 10:46 45.73625 5.97488 23907 ft 351 kts 183°
2026-05-04 10:46 45.71171 5.97380 24417 ft 356 kts 184°
2026-05-04 10:46 45.68670 5.97262 24891 ft 361 kts 184°
2026-05-04 10:47 45.66141 5.97131 25370 ft 366 kts 184°
2026-05-04 10:47 45.63587 5.96975 25857 ft 369 kts 185°
2026-05-04 10:47 45.61014 5.96822 26352 ft 371 kts 184°
2026-05-04 10:47 45.58427 5.96680 26845 ft 373 kts 185°
2026-05-04 10:49 45.40481 5.93805 30604 ft 362 kts 195°
2026-05-04 10:49 45.38016 5.93045 30977 ft 363 kts 195°
2026-05-04 10:50 45.35544 5.92267 31335 ft 364 kts 196°
2026-05-04 10:51 45.18284 5.86898 34057 ft 360 kts 197°
2026-05-04 10:52 45.15845 5.86143 34411 ft 358 kts 197°
2026-05-04 10:52 45.13416 5.85391 34770 ft 357 kts 197°
2026-05-04 10:52 45.10997 5.84643 35130 ft 355 kts 197°
2026-05-04 10:54 44.94513 5.79562 37798 ft 338 kts 198°
2026-05-04 10:54 44.92217 5.78857 38210 ft 335 kts 198°
2026-05-04 10:56 44.76794 5.74132 40681 ft 314 kts 198°
2026-05-04 10:56 44.74668 5.73484 41002 ft 312 kts 197°
2026-05-04 10:57 44.70342 5.72154 41079 ft 326 kts 197°
2026-05-04 10:57 44.65797 5.70776 41078 ft 342 kts 197°
2026-05-04 10:58 44.61055 5.69334 41089 ft 354 kts 197°
2026-05-04 10:58 44.56154 5.67847 41086 ft 366 kts 197°
2026-05-04 10:59 44.51116 5.66321 41087 ft 374 kts 197°
2026-05-04 10:59 44.45977 5.64768 41086 ft 381 kts 197°
2026-05-04 11:00 44.40750 5.63189 41087 ft 386 kts 197°
2026-05-04 11:02 44.20958 5.53021 41063 ft 380 kts 205°
2026-05-04 11:05 43.84179 5.33058 41033 ft 378 kts 206°
2026-05-04 11:06 43.79324 5.30441 41029 ft 375 kts 206°
2026-05-04 11:06 43.74471 5.27830 41018 ft 373 kts 206°
2026-05-04 11:10 43.41445 5.10179 41012 ft 369 kts 206°
2026-05-04 11:12 43.26430 4.97182 41020 ft 363 kts 218°
2026-05-04 11:12 43.24353 4.95229 41017 ft 362 kts 218°
2026-05-04 11:12 43.20209 4.91341 41009 ft 361 kts 218°
2026-05-04 11:13 43.16071 4.87461 41015 ft 364 kts 218°
2026-05-04 11:13 43.11886 4.83547 41017 ft 364 kts 218°
2026-05-04 11:14 43.07720 4.79655 41013 ft 362 kts 218°
2026-05-04 11:16 42.90164 4.65975 41007 ft 365 kts 213°
2026-05-04 11:16 42.85735 4.62628 41004 ft 363 kts 213°
2026-05-04 11:17 42.81323 4.59300 40992 ft 361 kts 213°
2026-05-04 11:19 42.63666 4.46036 40996 ft 364 kts 213°
2026-05-04 11:19 42.59245 4.42729 40990 ft 362 kts 213°
2026-05-04 11:20 42.54848 4.39444 40987 ft 360 kts 213°
2026-05-04 11:20 42.50486 4.36191 40988 ft 362 kts 213°
2026-05-04 11:22 42.32811 4.23065 40980 ft 359 kts 213°
2026-05-04 11:23 42.28419 4.19815 40979 ft 361 kts 213°
2026-05-04 11:25 42.12905 4.08385 40973 ft 361 kts 213°
2026-05-04 11:25 42.08507 4.05157 40972 ft 360 kts 213°
2026-05-04 11:27 41.88519 3.90770 40968 ft 361 kts 211°
2026-05-04 11:28 41.84066 3.87770 40969 ft 361 kts 211°
2026-05-04 11:28 41.79559 3.84741 40970 ft 364 kts 211°
2026-05-04 11:29 41.75023 3.81699 40975 ft 365 kts 211°
2026-05-04 11:29 41.70503 3.78672 40974 ft 361 kts 211°
2026-05-04 11:33 41.38920 3.57651 40970 ft 360 kts 211°
2026-05-04 11:33 41.34432 3.54683 40969 ft 360 kts 211°
2026-05-04 11:34 41.29950 3.51722 40972 ft 360 kts 211°
2026-05-04 11:34 41.25448 3.48753 40978 ft 362 kts 211°
2026-05-04 11:35 41.20943 3.45788 40982 ft 364 kts 211°
2026-05-04 11:35 41.16128 3.43522 40975 ft 372 kts 198°
2026-05-04 11:36 41.11067 3.42197 40973 ft 369 kts 198°
2026-05-04 11:36 41.06039 3.40856 40973 ft 370 kts 197°
2026-05-04 11:37 41.00969 3.39524 40975 ft 373 kts 197°
2026-05-04 11:37 40.95891 3.38187 40975 ft 370 kts 197°
2026-05-04 11:38 40.90850 3.36862 40972 ft 368 kts 197°
2026-05-04 11:38 40.85827 3.35543 40996 ft 369 kts 198°
2026-05-04 11:39 40.80746 3.34209 40987 ft 374 kts 197°
2026-05-04 11:41 40.62926 3.29558 40973 ft 371 kts 197°
2026-05-04 11:41 40.57902 3.28250 40971 ft 370 kts 198°
2026-05-04 11:42 40.52852 3.26937 40973 ft 371 kts 198°
2026-05-04 11:42 40.47763 3.25617 40974 ft 374 kts 197°
2026-05-04 11:43 40.42656 3.24295 40973 ft 373 kts 197°
2026-05-04 11:43 40.37579 3.22982 40970 ft 371 kts 197°
2026-05-04 11:44 40.32525 3.21676 40970 ft 370 kts 198°
2026-05-04 11:44 40.27455 3.20366 40971 ft 372 kts 198°
2026-05-04 11:45 40.22364 3.19054 40969 ft 374 kts 197°
2026-05-04 11:45 40.17256 3.17740 40972 ft 375 kts 197°
2026-05-04 11:46 40.12146 3.16427 40970 ft 373 kts 197°
2026-05-04 11:46 40.07073 3.15126 40966 ft 370 kts 198°
2026-05-04 11:47 40.02016 3.13828 40967 ft 372 kts 198°
2026-05-04 11:47 39.96920 3.12525 40972 ft 374 kts 197°
2026-05-04 11:48 39.91954 3.10710 40822 ft 370 kts 208°
2026-05-04 11:48 39.89673 3.09231 40349 ft 360 kts 214°
2026-05-04 11:48 39.87530 3.07649 39881 ft 349 kts 214°
2026-05-04 11:48 39.85438 3.06134 39426 ft 340 kts 213°
2026-05-04 11:49 39.83387 3.04648 38992 ft 336 kts 213°
2026-05-04 11:49 39.81343 3.03156 38526 ft 338 kts 213°
2026-05-04 11:49 39.79284 3.01654 38053 ft 340 kts 213°
2026-05-04 11:49 39.77213 3.00153 37601 ft 342 kts 213°
2026-05-04 11:50 39.75130 2.98643 37150 ft 344 kts 213°
2026-05-04 11:50 39.73036 2.97124 36694 ft 345 kts 213°
2026-05-04 11:50 39.70941 2.95606 36240 ft 344 kts 213°
2026-05-04 11:50 39.68852 2.94094 35786 ft 344 kts 213°
2026-05-04 11:51 39.66793 2.92604 35340 ft 343 kts 213°
2026-05-04 11:51 39.64709 2.91096 34888 ft 343 kts 213°
2026-05-04 11:51 39.62626 2.89591 34437 ft 343 kts 213°
2026-05-04 11:51 39.60535 2.88081 33980 ft 343 kts 213°
2026-05-04 11:52 39.58451 2.86577 33499 ft 343 kts 213°
2026-05-04 11:52 39.56366 2.85074 33045 ft 344 kts 213°
2026-05-04 11:52 39.54270 2.83561 32590 ft 346 kts 213°
2026-05-04 11:52 39.52157 2.82039 32133 ft 349 kts 213°
2026-05-04 11:53 39.50031 2.80510 31668 ft 350 kts 213°
2026-05-04 11:53 39.48593 2.79477 31355 ft 350 kts 213°
2026-05-04 11:53 39.45805 2.77406 30742 ft 348 kts 216°
2026-05-04 11:53 39.43862 2.75549 30285 ft 347 kts 221°
2026-05-04 11:55 39.32722 2.58682 26978 ft 355 kts 231°
2026-05-04 11:55 39.31167 2.56222 26510 ft 353 kts 231°
2026-05-04 11:56 39.29621 2.53777 26047 ft 351 kts 231°
2026-05-04 11:56 39.28598 2.52160 25740 ft 349 kts 231°
2026-05-04 11:56 39.27063 2.49735 25277 ft 347 kts 232°
2026-05-04 11:56 39.25043 2.46546 24669 ft 345 kts 232°
2026-05-04 11:57 39.23527 2.44156 24204 ft 343 kts 232°
2026-05-04 11:57 39.22019 2.41778 23764 ft 342 kts 232°
2026-05-04 11:57 39.20516 2.39412 23282 ft 340 kts 232°
2026-05-04 11:57 39.19027 2.37068 22826 ft 336 kts 232°
2026-05-04 11:58 39.18026 2.35495 22529 ft 336 kts 232°
2026-05-04 11:58 39.16544 2.33164 22086 ft 335 kts 232°
2026-05-04 11:58 39.15067 2.30846 21642 ft 334 kts 232°
2026-05-04 11:58 39.13597 2.28538 21205 ft 332 kts 232°
2026-05-04 11:59 39.12135 2.26245 20772 ft 330 kts 232°
2026-05-04 11:59 39.10677 2.23960 20331 ft 329 kts 232°
2026-05-04 11:59 39.09244 2.21716 19904 ft 328 kts 232°
2026-05-04 11:59 39.07795 2.19450 19470 ft 327 kts 232°
2026-05-04 12:00 39.06352 2.17192 19042 ft 326 kts 233°
2026-05-04 12:00 39.04916 2.14950 18613 ft 324 kts 233°
2026-05-04 12:00 39.03489 2.12721 18174 ft 322 kts 233°
2026-05-04 12:00 39.02070 2.10506 17733 ft 320 kts 233°
2026-05-04 12:01 39.00654 2.08297 17311 ft 320 kts 232°
2026-05-04 12:01 38.99239 2.06092 16887 ft 320 kts 232°
2026-05-04 12:02 38.90850 1.92897 14367 ft 314 kts 238°
2026-05-04 12:03 38.89812 1.90431 13963 ft 313 kts 245°
2026-05-04 12:03 38.88879 1.87908 13526 ft 313 kts 244°
2026-05-04 12:03 38.87959 1.85466 13112 ft 292 kts 244°
2026-05-04 12:03 38.87117 1.83231 12740 ft 265 kts 244°
2026-05-04 12:04 38.86380 1.81170 12400 ft 243 kts 250°
2026-05-04 12:04 38.86190 1.79093 12086 ft 230 kts 270°
2026-05-04 12:04 38.86598 1.77115 11795 ft 234 kts 290°
2026-05-04 12:04 38.87583 1.75421 11498 ft 243 kts 312°
2026-05-04 12:05 38.89066 1.74302 11175 ft 255 kts 335°
2026-05-04 12:05 38.90851 1.74037 10842 ft 266 kts
2026-05-04 12:05 38.92614 1.74785 10500 ft 271 kts 28°
2026-05-04 12:05 38.93974 1.76451 10147 ft 272 kts 57°
2026-05-04 12:06 38.94880 1.78566 9796 ft 270 kts 64°
2026-05-04 12:06 38.95727 1.80709 9381 ft 268 kts 64°
2026-05-04 12:06 38.96584 1.82805 9060 ft 263 kts 60°
2026-05-04 12:06 38.97845 1.84474 8719 ft 262 kts 31°
2026-05-04 12:07 38.99516 1.85301 8390 ft 257 kts
2026-05-04 12:07 39.01263 1.85171 8055 ft 249 kts 340°
2026-05-04 12:07 39.02764 1.84192 7730 ft 238 kts 316°
2026-05-04 12:07 39.03812 1.82611 7413 ft 229 kts 294°
2026-05-04 12:08 39.04312 1.80715 7110 ft 221 kts 274°
2026-05-04 12:08 39.04252 1.78774 6822 ft 216 kts 255°
2026-05-04 12:08 39.03709 1.77032 6541 ft 212 kts 240°
2026-05-04 12:08 39.03000 1.75347 6292 ft 211 kts 238°
2026-05-04 12:09 39.02275 1.73692 6011 ft 213 kts 239°
2026-05-04 12:09 39.01587 1.72035 5729 ft 204 kts 240°
2026-05-04 12:09 39.00940 1.70462 5460 ft 194 kts 240°
2026-05-04 12:09 39.00324 1.68964 5209 ft 186 kts 240°
2026-05-04 12:10 38.99731 1.67522 4974 ft 179 kts 240°
2026-05-04 12:10 38.99157 1.66127 4742 ft 174 kts 240°
2026-05-04 12:10 38.98592 1.64757 4517 ft 175 kts 239°
2026-05-04 12:10 38.98020 1.63370 4283 ft 176 kts 239°
2026-05-04 12:11 38.97447 1.61979 4049 ft 175 kts 240°
2026-05-04 12:11 38.96880 1.60604 3820 ft 173 kts 240°
2026-05-04 12:11 38.96316 1.59238 3587 ft 173 kts 240°
2026-05-04 12:11 38.95752 1.57870 3366 ft 173 kts 240°
2026-05-04 12:12 38.95191 1.56509 3137 ft 172 kts 240°
2026-05-04 12:12 38.94635 1.55160 2911 ft 170 kts 240°
2026-05-04 12:12 38.94090 1.53838 2689 ft 169 kts 240°
2026-05-04 12:12 38.93542 1.52511 2469 ft 167 kts 240°
2026-05-04 12:13 38.93000 1.51196 2247 ft 167 kts 240°
2026-05-04 12:14 38.89286 1.42171 709 ft 137 kts 240°
2026-05-04 12:15 38.88863 1.41143 537 ft 127 kts 240°
2026-05-04 12:15 38.88462 1.40143 352 ft 123 kts 242°
2026-05-04 12:15 38.88076 1.39200 187 ft 114 kts 239°
2026-05-04 12:15 38.87729 1.38374 32 ft 92 kts 239°
2026-05-04 12:16 38.87476 1.37768 23 ft 63 kts 242°
2026-05-04 12:16 38.87308 1.37372 23 ft 36 kts 242°
2026-05-04 12:16 38.87261 1.37099 24 ft 29 kts 270°
2026-05-04 12:16 38.87264 1.36945 23 ft 11 kts 270°
2026-05-04 12:17 38.87262 1.36842 23 ft 7 kts 269°
2026-05-04 12:17 38.87284 1.36844 22 ft 19 kts 59°
2026-05-04 12:17 38.87366 1.37051 23 ft 27 kts 62°
2026-05-04 12:17 38.87435 1.37228 24 ft 15 kts 63°
2026-05-04 12:18 38.87477 1.37316 23 ft 16 kts 55°
2026-05-04 12:18 38.87539 1.37481 23 ft 25 kts 62°
2026-05-04 12:18 38.87615 1.37534 26 ft 12 kts 333°
2026-05-04 12:18 38.87710 1.37483 23 ft 13 kts 20°
2026-05-04 12:19 38.87725 1.37523 23 ft 7 kts 105°
2026-05-04 12:19 38.87670 1.37563 25 ft 0 kts 152°